Time,TemperatureF,DewpointF,PressureIn,WindDirection,WindDirectionDegrees,WindSpeedMPH,WindSpeedGustMPH,Humidity,HourlyPrecipIn,Conditions,Clouds,dailyrainin,SolarRadiationWatts/m^2,SoftwareType,DateUTC
2013-02-20 00:06:00,36.4,32.6,29.77,NW,310,0.0,0.0,86,0.00,,,0.00,0,Wunderground v.1.15,2013-02-20 08:06:00,
2013-02-20 00:12:00,36.3,32.8,29.77,NW,310,0.0,0.0,87,0.00,,,0.00,0,Wunderground v.1.15,2013-02-20 08:12:00,
2013-02-20 00:18:00,36.1,32.6,29.77,NW,310,0.0,0.0,87,0.00,,,0.00,0,Wunderground v.1.15,2013-02-20 08:18:00,
2013-02-20 00:24:00,35.9,32.1,29.77,NW,310,0.0,0.0,86,0.00,,,0.00,0,Wunderground v.1.15,2013-02-20 08:24:00,
2013-02-20 00:30:00,35.8,32.3,29.77,NW,310,0.0,0.0,87,0.00,,,0.00,0,Wunderground v.1.15,2013-02-20 08:30:00,
2013-02-20 00:36:00,35.6,32.1,29.77,NW,310,0.0,0.0,87,0.00,,,0.00,0,Wunderground v.1.15,2013-02-20 08:36:00,
2013-02-20 00:42:00,35.5,32.0,29.77,NW,310,0.0,0.0,87,0.00,,,0.00,0,Wunderground v.1.15,2013-02-20 08:42:00,
2013-02-20 00:48:00,35.3,31.8,29.78,NW,310,0.0,0.0,87,0.00,,,0.00,0,Wunderground v.1.15,2013-02-20 08:48:00,
2013-02-20 00:54:00,35.1,31.6,29.78,NW,310,0.0,0.0,87,0.00,,,0.00,0,Wunderground v.1.15,2013-02-20 08:54:00,
2013-02-20 01:00:00,35.1,31.6,29.78,NW,310,0.0,0.0,87,0.00,,,0.00,0,Wunderground v.1.15,2013-02-20 09:00:00,
2013-02-20 01:06:00,35.0,31.5,29.78,NW,310,0.0,0.0,87,0.00,,,0.00,0,Wunderground v.1.15,2013-02-20 09:06:00,
2013-02-20 01:12:00,34.8,31.3,29.78,NW,310,0.0,0.0,87,0.00,,,0.00,0,Wunderground v.1.15,2013-02-20 09:12:00,
2013-02-20 01:18:00,34.6,31.1,29.78,NW,310,0.0,0.0,87,0.00,,,0.00,0,Wunderground v.1.15,2013-02-20 09:18:00,
2013-02-20 01:24:00,34.4,30.9,29.78,NW,310,0.0,0.0,87,0.00,,,0.00,0,Wunderground v.1.15,2013-02-20 09:24:00,
2013-02-20 01:30:00,34.3,30.8,29.78,NW,310,0.0,0.0,87,0.00,,,0.00,0,Wunderground v.1.15,2013-02-20 09:30:00,
2013-02-20 01:36:00,34.1,30.6,29.78,NW,310,0.0,0.0,87,0.00,,,0.00,0,Wunderground v.1.15,2013-02-20 09:36:00,
2013-02-20 01:42:00,34.1,30.6,29.78,NW,310,0.0,0.0,87,0.00,,,0.00,0,Wunderground v.1.15,2013-02-20 09:42:00,
2013-02-20 01:48:00,34.2,31.0,29.78,NW,310,0.0,0.0,88,0.00,,,0.00,0,Wunderground v.1.15,2013-02-20 09:48:00,
2013-02-20 01:54:00,34.4,30.9,29.78,NW,310,0.0,0.0,87,0.00,,,0.00,0,Wunderground v.1.15,2013-02-20 09:54:00,
2013-02-20 02:00:00,34.8,31.6,29.78,NW,310,0.0,0.0,88,0.00,,,0.00,0,Wunderground v.1.15,2013-02-20 10:00:00,
2013-02-20 02:06:00,35.1,31.6,29.78,NW,310,0.0,0.0,87,0.00,,,0.00,0,Wunderground v.1.15,2013-02-20 10:06:00,
2013-02-20 02:12:00,35.4,31.9,29.78,NW,310,0.0,0.0,87,0.00,,,0.00,0,Wunderground v.1.15,2013-02-20 10:12:00,
2013-02-20 02:18:00,35.8,32.3,29.78,WNW,300,0.0,0.0,87,0.00,,,0.00,0,Wunderground v.1.15,2013-02-20 10:18:00,
2013-02-20 02:24:00,36.3,32.5,29.78,WNW,294,0.0,0.0,86,0.00,,,0.00,0,Wunderground v.1.15,2013-02-20 10:24:00,
2013-02-20 02:30:00,36.7,32.6,29.78,WNW,291,0.0,0.0,85,0.00,,,0.00,0,Wunderground v.1.15,2013-02-20 10:30:00,
2013-02-20 02:36:00,36.9,32.8,29.78,NW,313,0.0,0.0,85,0.00,,,0.00,0,Wunderground v.1.15,2013-02-20 10:36:00,
2013-02-20 02:42:00,37.0,32.6,29.78,NNW,335,0.0,0.0,84,0.00,,,0.00,0,Wunderground v.1.15,2013-02-20 10:42:00,
2013-02-20 02:48:00,37.1,32.7,29.78,NNW,332,0.0,0.0,84,0.00,,,0.00,0,Wunderground v.1.15,2013-02-20 10:48:00,
2013-02-20 02:54:00,37.3,32.9,29.79,NW,316,0.0,0.0,84,0.00,,,0.00,0,Wunderground v.1.15,2013-02-20 10:54:00,
2013-02-20 03:00:00,37.3,32.9,29.78,NW,318,0.0,0.0,84,0.00,,,0.00,0,Wunderground v.1.15,2013-02-20 11:00:00,
2013-02-20 03:06:00,37.4,32.7,29.79,NNW,330,0.0,3.0,83,0.00,,,0.00,0,Wunderground v.1.15,2013-02-20 11:06:00,
2013-02-20 03:12:00,37.6,32.9,29.78,NW,316,1.0,3.0,83,0.00,,,0.00,0,Wunderground v.1.15,2013-02-20 11:12:00,
2013-02-20 03:18:00,37.8,33.1,29.79,NW,318,1.0,3.0,83,0.00,,,0.00,0,Wunderground v.1.15,2013-02-20 11:18:00,
2013-02-20 03:24:00,38.0,33.0,29.79,NW,325,1.0,3.0,82,0.00,,,0.00,0,Wunderground v.1.15,2013-02-20 11:24:00,
2013-02-20 03:30:00,38.3,33.0,29.79,NW,319,1.0,1.0,81,0.00,,,0.00,0,Wunderground v.1.15,2013-02-20 11:30:00,
2013-02-20 03:36:00,38.2,32.9,29.79,NNW,346,1.0,2.0,81,0.00,,,0.00,0,Wunderground v.1.15,2013-02-20 11:36:00,
2013-02-20 03:42:00,38.2,32.9,29.79,NNW,333,1.0,1.0,81,0.00,,,0.00,0,Wunderground v.1.15,2013-02-20 11:42:00,
2013-02-20 03:48:00,38.2,32.9,29.79,NNW,327,1.0,3.0,81,0.00,,,0.00,0,Wunderground v.1.15,2013-02-20 11:48:00,
2013-02-20 03:54:00,38.2,32.9,29.79,NNW,345,1.0,5.0,81,0.00,,,0.00,0,Wunderground v.1.15,2013-02-20 11:54:00,
2013-02-20 04:00:00,38.0,32.7,29.79,NNW,336,1.0,1.0,81,0.00,,,0.00,0,Wunderground v.1.15,2013-02-20 12:00:00,
2013-02-20 04:06:00,37.9,32.6,29.79,NNW,331,0.0,5.0,81,0.00,,,0.00,0,Wunderground v.1.15,2013-02-20 12:06:00,
2013-02-20 04:12:00,37.9,32.6,29.79,NW,326,0.0,0.0,81,0.00,,,0.00,0,Wunderground v.1.15,2013-02-20 12:12:00,
2013-02-20 04:18:00,37.7,32.4,29.80,NW,326,0.0,0.0,81,0.00,,,0.00,0,Wunderground v.1.15,2013-02-20 12:18:00,
2013-02-20 04:24:00,37.5,32.2,29.80,NW,318,0.0,0.0,81,0.00,,,0.00,0,Wunderground v.1.15,2013-02-20 12:24:00,
2013-02-20 04:30:00,37.4,32.1,29.81,NW,321,0.0,2.0,81,0.00,,,0.00,0,Wunderground v.1.15,2013-02-20 12:30:00,
2013-02-20 04:36:00,37.3,32.3,29.81,NW,315,1.0,2.0,82,0.00,,,0.00,0,Wunderground v.1.15,2013-02-20 12:36:00,
2013-02-20 04:42:00,37.2,32.2,29.81,NW,313,1.0,1.0,82,0.00,,,0.00,0,Wunderground v.1.15,2013-02-20 12:42:00,
2013-02-20 04:48:00,37.2,32.2,29.81,NW,323,1.0,7.0,82,0.00,,,0.00,0,Wunderground v.1.15,2013-02-20 12:48:00,
2013-02-20 04:54:00,37.4,32.1,29.81,NNW,334,2.0,2.0,81,0.00,,,0.00,0,Wunderground v.1.15,2013-02-20 12:54:00,
2013-02-20 05:00:00,37.5,32.2,29.82,NW,309,1.0,5.0,81,0.00,,,0.00,0,Wunderground v.1.15,2013-02-20 13:00:00,
2013-02-20 05:06:00,38.0,32.4,29.82,NW,320,2.0,8.0,80,0.00,,,0.00,0,Wunderground v.1.15,2013-02-20 13:06:00,
2013-02-20 05:12:00,38.7,32.4,29.82,NW,322,4.0,8.0,78,0.00,,,0.00,0,Wunderground v.1.15,2013-02-20 13:12:00,
2013-02-20 05:18:00,39.0,32.4,29.82,North,360,2.0,8.0,77,0.00,,,0.00,0,Wunderground v.1.15,2013-02-20 13:18:00,
2013-02-20 05:24:00,39.1,32.2,29.82,NW,309,2.0,5.0,76,0.00,,,0.00,0,Wunderground v.1.15,2013-02-20 13:24:00,
2013-02-20 05:30:00,39.3,32.0,29.82,NNW,347,2.0,2.0,75,0.00,,,0.00,0,Wunderground v.1.15,2013-02-20 13:30:00,
2013-02-20 05:36:00,39.2,31.9,29.82,North,360,1.0,2.0,75,0.00,,,0.00,0,Wunderground v.1.15,2013-02-20 13:36:00,
2013-02-20 05:42:00,39.1,31.8,29.83,NW,322,1.0,3.0,75,0.00,,,0.00,0,Wunderground v.1.15,2013-02-20 13:42:00,
2013-02-20 05:48:00,39.2,31.6,29.83,NNE,27,1.0,3.0,74,0.00,,,0.00,0,Wunderground v.1.15,2013-02-20 13:48:00,
2013-02-20 05:54:00,39.1,31.5,29.82,NNW,336,1.0,4.0,74,0.00,,,0.00,0,Wunderground v.1.15,2013-02-20 13:54:00,
2013-02-20 06:00:00,39.2,31.6,29.83,NNW,329,1.0,1.0,74,0.00,,,0.00,0,Wunderground v.1.15,2013-02-20 14:00:00,
2013-02-20 06:06:00,39.5,31.9,29.83,North,350,2.0,8.0,74,0.00,,,0.00,0,Wunderground v.1.15,2013-02-20 14:06:00,
2013-02-20 06:12:00,39.6,31.7,29.83,NW,324,2.0,2.0,73,0.00,,,0.00,0,Wunderground v.1.15,2013-02-20 14:12:00,
2013-02-20 06:18:00,39.6,31.7,29.83,NNW,328,2.0,2.0,73,0.00,,,0.00,0,Wunderground v.1.15,2013-02-20 14:18:00,
2013-02-20 06:24:00,39.9,31.6,29.83,NNE,17,3.0,12.0,72,0.00,,,0.00,0,Wunderground v.1.15,2013-02-20 14:24:00,
2013-02-20 06:30:00,39.9,31.6,29.84,NW,326,3.0,3.0,72,0.00,,,0.00,0,Wunderground v.1.15,2013-02-20 14:30:00,
2013-02-20 06:36:00,39.8,31.5,29.84,NW,321,2.0,10.0,72,0.00,,,0.00,0,Wunderground v.1.15,2013-02-20 14:36:00,
2013-02-20 06:42:00,39.7,31.4,29.83,NNW,340,3.0,8.0,72,0.00,,,0.00,0,Wunderground v.1.15,2013-02-20 14:42:00,
2013-02-20 06:48:00,39.8,31.5,29.84,NNW,347,4.0,9.0,72,0.00,,,0.00,0,Wunderground v.1.15,2013-02-20 14:48:00,
2013-02-20 06:54:00,40.0,31.4,29.84,NNW,338,3.0,8.0,71,0.00,,,0.00,7,Wunderground v.1.15,2013-02-20 14:54:00,
2013-02-20 07:00:00,40.0,31.4,29.84,NNW,340,2.0,2.0,71,0.00,,,0.00,9,Wunderground v.1.15,2013-02-20 15:00:00,
2013-02-20 07:06:00,39.9,31.3,29.84,NW,313,1.0,12.0,71,0.00,,,0.00,12,Wunderground v.1.15,2013-02-20 15:06:00,
2013-02-20 07:12:00,40.0,31.4,29.84,NW,315,2.0,4.0,71,0.00,,,0.00,16,Wunderground v.1.15,2013-02-20 15:12:00,
2013-02-20 07:18:00,40.6,31.6,29.85,NW,310,4.0,4.0,70,0.00,,,0.00,19,Wunderground v.1.15,2013-02-20 15:18:00,
2013-02-20 07:24:00,41.1,31.7,29.85,WNW,291,5.0,10.0,69,0.00,,,0.00,23,Wunderground v.1.15,2013-02-20 15:24:00,
2013-02-20 07:30:00,41.4,31.6,29.85,NW,319,4.0,11.0,68,0.00,,,0.00,28,Wunderground v.1.15,2013-02-20 15:30:00,
2013-02-20 07:36:00,42.0,31.8,29.86,NNW,331,6.0,11.0,67,0.00,,,0.00,44,Wunderground v.1.15,2013-02-20 15:36:00,
2013-02-20 07:42:00,42.4,31.8,29.86,NW,308,7.0,8.0,66,0.00,,,0.00,26,Wunderground v.1.15,2013-02-20 15:42:00,
2013-02-20 07:48:00,42.6,32.0,29.86,NNW,340,6.0,8.0,66,0.00,,,0.00,28,Wunderground v.1.15,2013-02-20 15:48:00,
2013-02-20 07:54:00,42.8,32.2,29.87,NW,325,5.0,5.0,66,0.00,,,0.00,30,Wunderground v.1.15,2013-02-20 15:54:00,
2013-02-20 08:00:00,43.0,32.4,29.87,North,355,4.0,4.0,66,0.00,,,0.00,32,Wunderground v.1.15,2013-02-20 16:00:00,
2013-02-20 08:06:00,43.3,32.7,29.87,NNW,327,3.0,16.0,66,0.00,,,0.00,32,Wunderground v.1.15,2013-02-20 16:06:00,
2013-02-20 08:12:00,43.7,32.7,29.87,NNW,330,3.0,8.0,65,0.00,,,0.00,33,Wunderground v.1.15,2013-02-20 16:12:00,
2013-02-20 08:18:00,44.1,33.1,29.88,NNW,340,3.0,8.0,65,0.00,,,0.00,211,Wunderground v.1.15,2013-02-20 16:18:00,
2013-02-20 08:24:00,44.5,33.1,29.88,NW,325,3.0,4.0,64,0.00,,,0.00,267,Wunderground v.1.15,2013-02-20 16:24:00,
2013-02-20 08:30:00,45.0,33.2,29.88,NW,309,3.0,5.0,63,0.00,,,0.00,287,Wunderground v.1.15,2013-02-20 16:30:00,
2013-02-20 08:36:00,45.5,33.2,29.88,NNW,327,5.0,15.0,62,0.00,,,0.00,308,Wunderground v.1.15,2013-02-20 16:36:00,
2013-02-20 08:42:00,46.0,33.3,29.88,NNW,346,5.0,14.0,61,0.00,,,0.00,325,Wunderground v.1.15,2013-02-20 16:42:00,
2013-02-20 08:48:00,46.4,33.3,29.88,NW,317,5.0,14.0,60,0.00,,,0.00,345,Wunderground v.1.15,2013-02-20 16:48:00,
2013-02-20 08:54:00,46.9,33.3,29.88,NNW,332,5.0,6.0,59,0.00,,,0.00,364,Wunderground v.1.15,2013-02-20 16:54:00,
2013-02-20 09:00:00,47.4,33.8,29.88,NE,37,7.0,11.0,59,0.00,,,0.00,381,Wunderground v.1.15,2013-02-20 17:00:00,
2013-02-20 09:06:00,47.9,33.8,29.88,NW,323,7.0,18.0,58,0.00,,,0.00,401,Wunderground v.1.15,2013-02-20 17:06:00,
2013-02-20 09:12:00,48.2,33.7,29.88,NW,323,6.0,8.0,57,0.00,,,0.00,418,Wunderground v.1.15,2013-02-20 17:12:00,
2013-02-20 09:18:00,48.4,33.9,29.88,NNW,327,6.0,13.0,57,0.00,,,0.00,436,Wunderground v.1.15,2013-02-20 17:18:00,
2013-02-20 09:24:00,48.5,34.4,29.88,North,5,7.0,8.0,58,0.00,,,0.00,450,Wunderground v.1.15,2013-02-20 17:24:00,
2013-02-20 09:30:00,48.6,34.5,29.88,WNW,302,6.0,12.0,58,0.00,,,0.00,471,Wunderground v.1.15,2013-02-20 17:30:00,
2013-02-20 09:36:00,48.5,34.4,29.88,NNW,335,6.0,12.0,58,0.00,,,0.00,489,Wunderground v.1.15,2013-02-20 17:36:00,
2013-02-20 09:42:00,48.7,34.6,29.88,NNW,346,8.0,11.0,58,0.00,,,0.00,504,Wunderground v.1.15,2013-02-20 17:42:00,
2013-02-20 09:48:00,48.9,34.8,29.89,NW,315,9.0,20.0,58,0.00,,,0.00,519,Wunderground v.1.15,2013-02-20 17:48:00,
2013-02-20 09:54:00,49.2,35.0,29.89,NE,48,9.0,11.0,58,0.00,,,0.00,536,Wunderground v.1.15,2013-02-20 17:54:00,
2013-02-20 10:00:00,49.7,35.5,29.89,North,351,7.0,7.0,58,0.00,,,0.00,548,Wunderground v.1.15,2013-02-20 18:00:00,
2013-02-20 10:06:00,50.0,35.4,29.89,NNW,341,6.0,26.0,57,0.00,,,0.00,568,Wunderground v.1.15,2013-02-20 18:06:00,
2013-02-20 10:12:00,50.3,35.2,29.89,NNW,329,8.0,11.0,56,0.00,,,0.00,582,Wunderground v.1.15,2013-02-20 18:12:00,
2013-02-20 10:18:00,50.9,35.7,29.89,North,355,7.0,11.0,56,0.00,,,0.00,594,Wunderground v.1.15,2013-02-20 18:18:00,
2013-02-20 10:24:00,51.1,35.5,29.90,NNW,347,7.0,17.0,55,0.00,,,0.00,606,Wunderground v.1.15,2013-02-20 18:24:00,
2013-02-20 10:30:00,51.4,35.8,29.89,NW,315,9.0,9.0,55,0.00,,,0.00,619,Wunderground v.1.15,2013-02-20 18:30:00,
2013-02-20 10:36:00,52.3,37.1,29.90,NW,324,6.0,15.0,56,0.00,,,0.00,631,Wunderground v.1.15,2013-02-20 18:36:00,
2013-02-20 10:42:00,52.1,36.4,29.90,NW,311,8.0,9.0,55,0.00,,,0.00,642,Wunderground v.1.15,2013-02-20 18:42:00,
2013-02-20 10:48:00,52.5,36.8,29.89,NNW,335,9.0,14.0,55,0.00,,,0.00,654,Wunderground v.1.15,2013-02-20 18:48:00,
2013-02-20 10:54:00,53.4,37.2,29.90,NNW,346,6.0,8.0,54,0.00,,,0.00,663,Wunderground v.1.15,2013-02-20 18:54:00,
2013-02-20 11:00:00,53.9,37.1,29.90,NNW,328,6.0,14.0,53,0.00,,,0.00,671,Wunderground v.1.15,2013-02-20 19:00:00,
2013-02-20 11:06:00,54.2,37.4,29.90,North,360,7.0,23.0,53,0.00,,,0.00,682,Wunderground v.1.15,2013-02-20 19:06:00,
2013-02-20 11:12:00,54.6,37.3,29.90,WNW,299,7.0,20.0,52,0.00,,,0.00,689,Wunderground v.1.15,2013-02-20 19:12:00,
2013-02-20 11:18:00,54.6,36.3,29.90,NW,313,9.0,21.0,50,0.00,,,0.00,698,Wunderground v.1.15,2013-02-20 19:18:00,
2013-02-20 11:24:00,54.7,35.9,29.90,WNW,292,9.0,12.0,49,0.00,,,0.00,705,Wunderground v.1.15,2013-02-20 19:24:00,
2013-02-20 11:30:00,55.3,37.0,29.90,NW,316,8.0,8.0,50,0.00,,,0.00,710,Wunderground v.1.15,2013-02-20 19:30:00,
2013-02-20 11:36:00,55.7,36.8,29.90,WNW,300,6.0,8.0,49,0.00,,,0.00,715,Wunderground v.1.15,2013-02-20 19:36:00,
2013-02-20 11:42:00,55.8,35.9,29.90,NW,319,6.0,14.0,47,0.00,,,0.00,721,Wunderground v.1.15,2013-02-20 19:42:00,
2013-02-20 11:48:00,55.8,35.9,29.90,NNW,330,8.0,21.0,47,0.00,,,0.00,726,Wunderground v.1.15,2013-02-20 19:48:00,
2013-02-20 11:54:00,55.9,35.4,29.90,NW,312,9.0,15.0,46,0.00,,,0.00,731,Wunderground v.1.15,2013-02-20 19:54:00,
2013-02-20 12:00:00,55.8,35.9,29.90,NNW,342,10.0,10.0,47,0.00,,,0.00,733,Wunderground v.1.15,2013-02-20 20:00:00,
2013-02-20 12:06:00,56.4,34.7,29.89,NNW,346,8.0,27.0,44,0.00,,,0.00,742,Wunderground v.1.15,2013-02-20 20:06:00,
2013-02-20 12:12:00,56.4,35.3,29.89,WNW,294,8.0,9.0,45,0.00,,,0.00,745,Wunderground v.1.15,2013-02-20 20:12:00,
2013-02-20 12:18:00,56.8,34.5,29.90,NW,321,7.0,13.0,43,0.00,,,0.00,744,Wunderground v.1.15,2013-02-20 20:18:00,
2013-02-20 12:24:00,56.9,34.6,29.90,NNW,338,7.0,14.0,43,0.00,,,0.00,744,Wunderground v.1.15,2013-02-20 20:24:00,
2013-02-20 12:30:00,57.3,34.4,29.89,NW,304,6.0,6.0,42,0.00,,,0.00,745,Wunderground v.1.15,2013-02-20 20:30:00,
2013-02-20 12:36:00,57.5,35.2,29.89,NW,318,8.0,12.0,43,0.00,,,0.00,745,Wunderground v.1.15,2013-02-20 20:36:00,
2013-02-20 12:42:00,57.5,34.6,29.89,WNW,292,8.0,11.0,42,0.00,,,0.00,728,Wunderground v.1.15,2013-02-20 20:42:00,
2013-02-20 12:48:00,57.8,34.8,29.88,NE,48,8.0,11.0,42,0.00,,,0.00,714,Wunderground v.1.15,2013-02-20 20:48:00,
2013-02-20 12:54:00,58.1,34.5,29.88,NW,323,6.0,10.0,41,0.00,,,0.00,733,Wunderground v.1.15,2013-02-20 20:54:00,
2013-02-20 13:00:00,58.5,34.2,29.89,NNW,333,6.0,8.0,40,0.00,,,0.00,747,Wunderground v.1.15,2013-02-20 21:00:00,
2013-02-20 13:06:00,58.5,33.6,29.89,North,9,7.0,28.0,39,0.00,,,0.00,749,Wunderground v.1.15,2013-02-20 21:06:00,
2013-02-20 13:12:00,58.7,35.0,29.89,NNW,338,6.0,9.0,41,0.00,,,0.00,731,Wunderground v.1.15,2013-02-20 21:12:00,
2013-02-20 13:18:00,59.3,35.6,29.89,NNW,330,5.0,11.0,41,0.00,,,0.00,694,Wunderground v.1.15,2013-02-20 21:18:00,
2013-02-20 13:24:00,59.3,35.0,29.89,NW,312,5.0,8.0,40,0.00,,,0.00,608,Wunderground v.1.15,2013-02-20 21:24:00,
2013-02-20 13:30:00,59.3,33.7,29.89,NNW,329,5.0,10.0,38,0.00,,,0.00,631,Wunderground v.1.15,2013-02-20 21:30:00,
2013-02-20 13:36:00,59.2,34.9,29.89,NW,315,6.0,10.0,40,0.00,,,0.00,729,Wunderground v.1.15,2013-02-20 21:36:00,
2013-02-20 13:42:00,59.8,34.8,29.89,North,355,5.0,15.0,39,0.00,,,0.00,737,Wunderground v.1.15,2013-02-20 21:42:00,
2013-02-20 13:48:00,59.9,34.2,29.89,NNW,327,5.0,15.0,38,0.00,,,0.00,594,Wunderground v.1.15,2013-02-20 21:48:00,
2013-02-20 13:54:00,59.5,34.5,29.88,NNW,329,6.0,10.0,39,0.00,,,0.00,605,Wunderground v.1.15,2013-02-20 21:54:00,
2013-02-20 14:00:00,59.8,34.1,29.88,NW,325,5.0,5.0,38,0.00,,,0.00,610,Wunderground v.1.15,2013-02-20 22:00:00,
2013-02-20 14:06:00,60.1,33.7,29.88,North,355,4.0,26.0,37,0.00,,,0.00,480,Wunderground v.1.15,2013-02-20 22:06:00,
2013-02-20 14:12:00,59.8,33.5,29.88,West,278,4.0,9.0,37,0.00,,,0.00,492,Wunderground v.1.15,2013-02-20 22:12:00,
2013-02-20 14:18:00,59.6,33.9,29.88,NE,38,4.0,9.0,38,0.00,,,0.00,617,Wunderground v.1.15,2013-02-20 22:18:00,
2013-02-20 14:24:00,60.4,33.3,29.89,NNE,30,4.0,14.0,36,0.00,,,0.00,596,Wunderground v.1.15,2013-02-20 22:24:00,
2013-02-20 14:30:00,60.2,33.1,29.89,NW,322,6.0,9.0,36,0.00,,,0.00,617,Wunderground v.1.15,2013-02-20 22:30:00,
2013-02-20 14:36:00,60.3,33.2,29.88,North,355,5.0,9.0,36,0.00,,,0.00,603,Wunderground v.1.15,2013-02-20 22:36:00,
2013-02-20 14:42:00,60.9,33.7,29.88,NNW,329,4.0,10.0,36,0.00,,,0.00,587,Wunderground v.1.15,2013-02-20 22:42:00,
2013-02-20 14:48:00,60.7,32.9,29.88,WNW,292,5.0,10.0,35,0.00,,,0.00,573,Wunderground v.1.15,2013-02-20 22:48:00,
2013-02-20 14:54:00,60.4,33.3,29.88,WNW,302,5.0,10.0,36,0.00,,,0.00,557,Wunderground v.1.15,2013-02-20 22:54:00,
2013-02-20 15:00:00,60.5,33.4,29.88,North,360,5.0,5.0,36,0.00,,,0.00,541,Wunderground v.1.15,2013-02-20 23:00:00,
2013-02-20 15:06:00,61.0,34.5,29.88,NNE,27,3.0,24.0,37,0.00,,,0.00,527,Wunderground v.1.15,2013-02-20 23:06:00,
2013-02-20 15:12:00,61.1,31.8,29.88,NW,313,4.0,9.0,33,0.00,,,0.00,512,Wunderground v.1.15,2013-02-20 23:12:00,
2013-02-20 15:18:00,61.0,33.1,29.88,WNW,286,4.0,9.0,35,0.00,,,0.00,499,Wunderground v.1.15,2013-02-20 23:18:00,
2013-02-20 15:24:00,61.0,32.4,29.88,NW,311,4.0,7.0,34,0.00,,,0.00,480,Wunderground v.1.15,2013-02-20 23:24:00,
2013-02-20 15:30:00,61.0,32.4,29.88,NNW,340,4.0,4.0,34,0.00,,,0.00,464,Wunderground v.1.15,2013-02-20 23:30:00,
2013-02-20 15:36:00,60.9,30.8,29.88,North,360,4.0,6.0,32,0.00,,,0.00,446,Wunderground v.1.15,2013-02-20 23:36:00,
2013-02-20 15:42:00,60.7,32.1,29.88,NW,304,5.0,10.0,34,0.00,,,0.00,429,Wunderground v.1.15,2013-02-20 23:42:00,
2013-02-20 15:48:00,60.5,32.0,29.88,NNE,19,5.0,10.0,34,0.00,,,0.00,410,Wunderground v.1.15,2013-02-20 23:48:00,
2013-02-20 15:54:00,60.4,31.9,29.88,West,278,5.0,6.0,34,0.00,,,0.00,390,Wunderground v.1.15,2013-02-20 23:54:00,
2013-02-20 16:00:00,60.2,31.7,29.88,NW,313,6.0,6.0,34,0.00,,,0.00,371,Wunderground v.1.15,2013-02-21 00:00:00,
2013-02-20 16:06:00,60.1,30.1,29.88,North,349,6.0,20.0,32,0.00,,,0.00,350,Wunderground v.1.15,2013-02-21 00:06:00,
2013-02-20 16:12:00,59.9,31.4,29.88,North,360,6.0,6.0,34,0.00,,,0.00,330,Wunderground v.1.15,2013-02-21 00:12:00,
2013-02-20 16:18:00,60.0,30.8,29.89,NNE,33,3.0,6.0,33,0.00,,,0.00,313,Wunderground v.1.15,2013-02-21 00:18:00,
2013-02-20 16:24:00,59.9,30.7,29.89,NNW,341,3.0,5.0,33,0.00,,,0.00,288,Wunderground v.1.15,2013-02-21 00:24:00,
2013-02-20 16:30:00,60.0,30.8,29.89,NW,315,3.0,3.0,33,0.00,,,0.00,262,Wunderground v.1.15,2013-02-21 00:30:00,
2013-02-20 16:36:00,59.8,30.6,29.89,NNW,345,2.0,3.0,33,0.00,,,0.00,232,Wunderground v.1.15,2013-02-21 00:36:00,
2013-02-20 16:42:00,59.8,31.3,29.89,NW,311,2.0,4.0,34,0.00,,,0.00,207,Wunderground v.1.15,2013-02-21 00:42:00,
2013-02-20 16:48:00,59.6,31.2,29.89,North,351,1.0,4.0,34,0.00,,,0.00,181,Wunderground v.1.15,2013-02-21 00:48:00,
2013-02-20 16:54:00,59.1,31.4,29.89,NNW,332,3.0,8.0,35,0.00,,,0.00,149,Wunderground v.1.15,2013-02-21 00:54:00,
2013-02-20 17:00:00,58.8,31.2,29.89,NNW,335,3.0,3.0,35,0.00,,,0.00,130,Wunderground v.1.15,2013-02-21 01:00:00,
2013-02-20 17:06:00,58.7,31.1,29.89,NW,323,2.0,20.0,35,0.00,,,0.00,105,Wunderground v.1.15,2013-02-21 01:06:00,
2013-02-20 17:12:00,58.5,30.9,29.89,NW,311,1.0,1.0,35,0.00,,,0.00,84,Wunderground v.1.15,2013-02-21 01:12:00,
2013-02-20 17:18:00,58.5,30.9,29.90,NW,318,1.0,1.0,35,0.00,,,0.00,63,Wunderground v.1.15,2013-02-21 01:18:00,
2013-02-20 17:24:00,57.7,30.9,29.90,NW,314,1.0,2.0,36,0.00,,,0.00,26,Wunderground v.1.15,2013-02-21 01:24:00,
2013-02-20 17:30:00,57.0,30.3,29.90,NW,311,1.0,1.0,36,0.00,,,0.00,16,Wunderground v.1.15,2013-02-21 01:30:00,
2013-02-20 17:36:00,56.5,30.5,29.90,NNE,18,0.0,1.0,37,0.00,,,0.00,14,Wunderground v.1.15,2013-02-21 01:36:00,
2013-02-20 17:42:00,56.0,30.7,29.90,NNW,344,0.0,0.0,38,0.00,,,0.00,11,Wunderground v.1.15,2013-02-21 01:42:00,
2013-02-20 17:48:00,55.5,30.3,29.90,NNW,334,0.0,0.0,38,0.00,,,0.00,7,Wunderground v.1.15,2013-02-21 01:48:00,
2013-02-20 17:54:00,55.2,30.7,29.90,NNW,331,0.0,0.0,39,0.00,,,0.00,0,Wunderground v.1.15,2013-02-21 01:54:00,
2013-02-20 18:00:00,54.6,31.3,29.90,NNW,331,0.0,0.0,41,0.00,,,0.00,0,Wunderground v.1.15,2013-02-21 02:00:00,
2013-02-20 18:06:00,54.0,31.4,29.90,WNW,300,0.0,21.0,42,0.00,,,0.00,0,Wunderground v.1.15,2013-02-21 02:06:00,
2013-02-20 18:12:00,53.3,30.8,29.90,NW,311,0.0,4.0,42,0.00,,,0.00,0,Wunderground v.1.15,2013-02-21 02:12:00,
2013-02-20 18:18:00,53.0,29.9,29.90,NW,317,1.0,4.0,41,0.00,,,0.00,0,Wunderground v.1.15,2013-02-21 02:18:00,
2013-02-20 18:24:00,53.0,29.9,29.90,NW,315,0.0,2.0,41,0.00,,,0.00,0,Wunderground v.1.15,2013-02-21 02:24:00,
2013-02-20 18:30:00,52.7,30.2,29.90,NW,316,0.0,0.0,42,0.00,,,0.00,0,Wunderground v.1.15,2013-02-21 02:30:00,
2013-02-20 18:36:00,52.5,30.0,29.90,NW,317,0.0,0.0,42,0.00,,,0.00,0,Wunderground v.1.15,2013-02-21 02:36:00,
2013-02-20 18:42:00,52.3,29.9,29.91,NW,316,0.0,0.0,42,0.00,,,0.00,0,Wunderground v.1.15,2013-02-21 02:42:00,
2013-02-20 18:48:00,52.0,29.6,29.91,NW,316,0.0,0.0,42,0.00,,,0.00,0,Wunderground v.1.15,2013-02-21 02:48:00,
2013-02-20 18:54:00,51.6,29.8,29.91,NW,316,0.0,0.0,43,0.00,,,0.00,0,Wunderground v.1.15,2013-02-21 02:54:00,
2013-02-20 19:00:00,51.2,29.4,29.91,NW,316,0.0,0.0,43,0.00,,,0.00,0,Wunderground v.1.15,2013-02-21 03:00:00,
2013-02-20 19:06:00,50.8,29.6,29.92,NW,316,0.0,8.0,44,0.00,,,0.00,0,Wunderground v.1.15,2013-02-21 03:06:00,
2013-02-20 19:12:00,50.5,29.9,29.92,NW,311,0.0,1.0,45,0.00,,,0.00,0,Wunderground v.1.15,2013-02-21 03:12:00,
2013-02-20 19:18:00,51.3,29.0,29.92,West,271,1.0,3.0,42,0.00,,,0.00,0,Wunderground v.1.15,2013-02-21 03:18:00,
2013-02-20 19:24:00,52.3,29.3,29.92,WNW,293,1.0,3.0,41,0.00,,,0.00,0,Wunderground v.1.15,2013-02-21 03:24:00,
2013-02-20 19:30:00,52.3,29.3,29.92,NW,306,0.0,0.0,41,0.00,,,0.00,0,Wunderground v.1.15,2013-02-21 03:30:00,
2013-02-20 19:36:00,51.9,30.1,29.92,West,275,1.0,1.0,43,0.00,,,0.00,0,Wunderground v.1.15,2013-02-21 03:36:00,
2013-02-20 19:42:00,51.2,30.0,29.92,West,275,1.0,1.0,44,0.00,,,0.00,0,Wunderground v.1.15,2013-02-21 03:42:00,
2013-02-20 19:48:00,50.6,30.0,29.92,West,275,0.0,1.0,45,0.00,,,0.00,0,Wunderground v.1.15,2013-02-21 03:48:00,
2013-02-20 19:54:00,50.0,30.5,29.93,West,275,0.0,0.0,47,0.00,,,0.00,0,Wunderground v.1.15,2013-02-21 03:54:00,
2013-02-20 20:00:00,49.3,30.4,29.93,West,275,0.0,0.0,48,0.00,,,0.00,0,Wunderground v.1.15,2013-02-21 04:00:00,
2013-02-20 20:06:00,48.7,30.9,29.93,West,275,0.0,4.0,50,0.00,,,0.00,0,Wunderground v.1.15,2013-02-21 04:06:00,
2013-02-20 20:12:00,48.2,30.9,29.93,West,275,0.0,0.0,51,0.00,,,0.00,0,Wunderground v.1.15,2013-02-21 04:12:00,
2013-02-20 20:18:00,47.6,30.8,29.93,West,265,0.0,0.0,52,0.00,,,0.00,0,Wunderground v.1.15,2013-02-21 04:18:00,
2013-02-20 20:26:00,47.2,30.9,29.93,West,260,0.0,0.0,53,0.00,,,0.00,0,Wunderground v.1.15,2013-02-21 04:26:00,
2013-02-20 20:32:00,46.9,30.6,29.93,West,261,0.0,0.0,53,0.00,,,0.00,0,Wunderground v.1.15,2013-02-21 04:32:00,
2013-02-20 20:38:00,46.6,30.8,29.93,West,260,0.0,0.0,54,0.00,,,0.00,0,Wunderground v.1.15,2013-02-21 04:38:00,
2013-02-20 20:44:00,46.2,30.5,29.94,West,260,0.0,0.0,54,0.00,,,0.00,0,Wunderground v.1.15,2013-02-21 04:44:00,
2013-02-20 20:50:00,45.8,30.5,29.94,West,260,0.0,0.0,55,0.00,,,0.00,0,Wunderground v.1.15,2013-02-21 04:50:00,
2013-02-20 20:56:00,45.4,30.6,29.94,West,260,0.0,0.0,56,0.00,,,0.00,0,Wunderground v.1.15,2013-02-21 04:56:00,
2013-02-20 21:00:00,45.2,30.4,29.94,West,260,0.0,0.0,56,0.00,,,0.00,0,Wunderground v.1.15,2013-02-21 05:00:00,
2013-02-20 21:04:00,45.2,30.4,29.94,West,260,0.0,9.0,56,0.00,,,0.00,0,Wunderground v.1.15,2013-02-21 05:04:00,
2013-02-20 21:06:00,45.2,30.4,29.94,West,260,0.0,9.0,56,0.00,,,0.00,0,Wunderground v.1.15,2013-02-21 05:06:00,
2013-02-20 21:08:00,45.2,30.4,29.94,West,260,0.0,9.0,56,0.00,,,0.00,0,Wunderground v.1.15,2013-02-21 05:08:00,
2013-02-20 21:14:00,45.2,30.4,29.94,WSW,255,0.0,3.0,56,0.00,,,0.00,0,Wunderground v.1.15,2013-02-21 05:14:00,
2013-02-20 21:20:00,45.1,30.3,29.94,WSW,252,1.0,1.0,56,0.00,,,0.00,0,Wunderground v.1.15,2013-02-21 05:20:00,
2013-02-20 21:26:00,45.1,30.3,29.94,WSW,253,0.0,1.0,56,0.00,,,0.00,0,Wunderground v.1.15,2013-02-21 05:26:00,
2013-02-20 21:32:00,45.1,30.3,29.95,WSW,252,0.0,0.0,56,0.00,,,0.00,0,Wunderground v.1.15,2013-02-21 05:32:00,
2013-02-20 21:38:00,45.2,30.0,29.95,WSW,253,0.0,0.0,55,0.00,,,0.00,0,Wunderground v.1.15,2013-02-21 05:38:00,
2013-02-20 21:44:00,45.1,29.9,29.95,WSW,253,0.0,0.0,55,0.00,,,0.00,0,Wunderground v.1.15,2013-02-21 05:44:00,
2013-02-20 21:50:00,45.0,30.2,29.96,WSW,252,0.0,0.0,56,0.00,,,0.00,0,Wunderground v.1.15,2013-02-21 05:50:00,
2013-02-20 21:56:00,45.0,30.2,29.96,WSW,247,0.0,0.0,56,0.00,,,0.00,0,Wunderground v.1.15,2013-02-21 05:56:00,
2013-02-20 22:02:00,44.9,30.1,29.96,WSW,240,0.0,2.0,56,0.00,,,0.00,0,Wunderground v.1.15,2013-02-21 06:02:00,
2013-02-20 22:08:00,44.5,30.2,29.96,WSW,240,0.0,2.0,57,0.00,,,0.00,0,Wunderground v.1.15,2013-02-21 06:08:00,
2013-02-20 22:14:00,44.0,30.2,29.96,WSW,240,0.0,0.0,58,0.00,,,0.00,0,Wunderground v.1.15,2013-02-21 06:14:00,
2013-02-20 22:20:00,43.6,30.2,29.96,WSW,240,0.0,0.0,59,0.00,,,0.00,0,Wunderground v.1.15,2013-02-21 06:20:00,
2013-02-20 22:26:00,43.2,30.2,29.95,WSW,240,0.0,0.0,60,0.00,,,0.00,0,Wunderground v.1.15,2013-02-21 06:26:00,
2013-02-20 22:32:00,43.0,30.1,29.95,WSW,240,0.0,0.0,60,0.00,,,0.00,0,Wunderground v.1.15,2013-02-21 06:32:00,
2013-02-20 22:38:00,42.8,30.3,29.95,WSW,240,0.0,0.0,61,0.00,,,0.00,0,Wunderground v.1.15,2013-02-21 06:38:00,
2013-02-20 22:44:00,42.7,30.6,29.95,WSW,240,0.0,0.0,62,0.00,,,0.00,0,Wunderground v.1.15,2013-02-21 06:44:00,
2013-02-20 22:50:00,42.5,30.4,29.95,WSW,240,0.0,0.0,62,0.00,,,0.00,0,Wunderground v.1.15,2013-02-21 06:50:00,
2013-02-20 22:56:00,42.4,30.7,29.95,WSW,240,0.0,0.0,63,0.00,,,0.00,0,Wunderground v.1.15,2013-02-21 06:56:00,
2013-02-20 23:02:00,42.4,31.1,29.95,WSW,240,0.0,4.0,64,0.00,,,0.00,0,Wunderground v.1.15,2013-02-21 07:02:00,
2013-02-20 23:08:00,42.5,31.2,29.95,WSW,243,0.0,4.0,64,0.00,,,0.00,0,Wunderground v.1.15,2013-02-21 07:08:00,
2013-02-20 23:14:00,42.8,31.8,29.95,WSW,256,0.0,0.0,65,0.00,,,0.00,0,Wunderground v.1.15,2013-02-21 07:14:00,
2013-02-20 23:20:00,42.9,31.9,29.95,WSW,256,0.0,0.0,65,0.00,,,0.00,0,Wunderground v.1.15,2013-02-21 07:20:00,
2013-02-20 23:26:00,43.1,32.1,29.95,West,261,0.0,2.0,65,0.00,,,0.00,0,Wunderground v.1.15,2013-02-21 07:26:00,
2013-02-20 23:32:00,43.4,32.4,29.95,West,272,1.0,1.0,65,0.00,,,0.00,0,Wunderground v.1.15,2013-02-21 07:32:00,
2013-02-20 23:38:00,43.7,32.7,29.95,West,273,1.0,2.0,65,0.00,,,0.00,0,Wunderground v.1.15,2013-02-21 07:38:00,
2013-02-20 23:44:00,43.8,32.8,29.95,West,272,1.0,1.0,65,0.00,,,0.00,0,Wunderground v.1.15,2013-02-21 07:44:00,
2013-02-20 23:50:00,43.8,32.8,29.95,West,272,0.0,0.0,65,0.00,,,0.00,0,Wunderground v.1.15,2013-02-21 07:50:00,
2013-02-20 23:56:00,43.8,32.8,29.95,West,272,0.0,0.0,65,0.00,,,0.00,0,Wunderground v.1.15,2013-02-21 07:56:00,